Orbital Elements at Epoch 2459200.5 (2020-Dec-17.0) TDB
Reference: JPL 20 (heliocentric ecliptic J2000)
Element | Value | Uncertainty (1-sigma) | Units |
e | .09128176444756132 | 4.0626e-08 | |
a | 3.21169597629469 | 2.9938e-08 | au |
q | 2.918526700709378 | 1.4308e-07 | au |
i | 3.617000853499671 | 4.4295e-06 | deg |
node | 209.3512704283083 | 7.3944e-05 | deg |
peri | 247.2631801574404 | 8.049e-05 | deg |
M | 249.8387551264423 | 3.5677e-05 | deg |
tp | 2459843.819036069301 (2022-Sep-21.31903607) | 0.00021238 | TDB |
period | 2102.326033540845 5.76 | 2.9395e-05 8.048e-08 | d yr |
n | .1712389012248826 | 2.3943e-09 | deg/d |
Q | 3.504865251880002 | 3.2671e-08 | au |
|
| | Orbit Determination Parameters
Additional Information
|